Tracking 20383 objects as of 23-Feb-2020
HD Live streaming from Space Station
objects crossing your sky now
Track the group of recently launched Starlink satellites

TITAN 3C TRANSTAGE DEB

Track TITAN 3C TRANSTAGE DEB now!
10-day predictions


NORAD ID: 1833
Int'l Code: 1965-082DY
Perigee: 649.1 km
Apogee: 759.4 km
Inclination: 32.2 °
Period: 98.7 minutes
Semi major axis: 7075 km
RCS: 0.1109 m2 (medium)
Launch date: October 15, 1965
Source: United States (US)
Launch site: AIR FORCE EASTERN TEST RANGE (AFETR)

Note: This is SATELLITE DEBRIS
aabbcc
Your satellite tracking list
Your tracking list is empty




NASA's NSSDC Master Catalog

Two Line Element Set (TLE):
1  1833U 65082DY  20053.70385806 +.00000415 +00000-0 +75721-4 0  9999
2  1833 032.2258 179.8917 0077960 217.2021 142.3204 14.58788276831795
Source of the keplerian elements: AFSPC